This demonstration page uses our WeatherBlox Daily Observations layout. Learn more.

Left ArrowRight Arrow

38.20091, -84.87328

Hourly Observations for January 3, 2015

Temp ( °F °C ) Dew Point ( °F °C ) Humidity (%) Winds ( mph kmh ) Pressure ( in mb ) Visibility ( mi km ) Precip ( " mm )
12:53 am 00:53 Cloudy 37 2.8 34 1.1 89 89 E 6 9 30.20 1023 8 13 0.00 0.00
1:16 am 01:16 Cloudy 37 2.8 34 1.1 89 89 E 6 9 30.21 1023 9 14 0.00 0.00
1:53 am 01:53 Cloudy 38 3.3 34 1.1 86 86 E 6 9 30.17 1022 9 14 0.00 0.00
2:00 am 02:00 Cloudy with Mist and Fog 38 3.3 34 1.1 86 86 E 6 9 30.18 1022 5 8 0.00 0.00
2:32 am 02:32 Cloudy with Light Rain 37 2.8 35 1.7 93 93 E 5 7 30.18 1022 3 4 0.00 0.03
2:45 am 02:45 Cloudy with Light Rain 37 2.8 36 2.2 96 96 E 7 11 30.18 1022 2 3 0.01 0.25
2:53 am 02:53 Cloudy with Light Rain 37 2.8 36 2.2 96 96 E 5 7 30.16 1021 2 3 0.02 0.51
2:56 am 02:56 Cloudy with Light Rain 37 2.8 36 2.2 96 96 E 5 7 30.18 1022 2 3 0.00 0.03
3:12 am 03:12 Cloudy with Mist and Fog 37 2.8 36 2.2 96 96 ENE 6 9 30.18 1022 2 3 0.00 0.03
3:21 am 03:21 Cloudy with Mist and Fog 37 2.8 36 2.2 96 96 E 6 9 30.15 1021 2 3 0.00 0.03
3:53 am 03:53 Cloudy with Mist and Fog 37 2.8 36 2.2 96 96 ESE 5 7 30.12 1020 2 3 0.01 0.25
4:16 am 04:16 Cloudy with Mist and Fog 38 3.3 37 2.8 97 97 ESE 6 9 30.12 1020 2 3 0.00 0.00
4:28 am 04:28 Cloudy with Mist and Fog 38 3.3 37 2.8 97 97 ESE 3 6 30.12 1020 2 3 0.00 0.00
4:53 am 04:53 Cloudy with Mist and Fog 38 3.3 37 2.8 97 97 E 5 7 30.10 1019 2 3 0.00 0.00
5:02 am 05:02 Cloudy with Mist and Fog 39 3.9 38 3.3 96 96 ESE 6 9 30.12 1020 2 3 0.00 0.00
5:24 am 05:24 Cloudy with Mist and Fog 39 3.9 38 3.3 96 96 E 7 11 30.09 1019 2 3 0.00 0.00
5:46 am 05:46 Cloudy with Mist and Fog 39 3.9 38 3.3 96 96 ESE 3 6 30.09 1019 3 4 0.00 0.00
5:53 am 05:53 Cloudy with Mist and Fog 39 3.9 38 3.3 96 96 E 6 9 30.07 1018 3 5 0.00 0.00
6:46 am 06:46 Cloudy with Light Rain 40 4.4 39 3.9 97 97 Calm 30.09 1019 3 4 0.01 0.25
6:53 am 06:53 Cloudy with Mist and Fog 40 4.4 38 3.3 93 93 Calm 30.06 1018 3 5 0.01 0.25
7:05 am 07:05 Cloudy with Mist and Fog 40 4.4 38 3.3 93 93 ENE 5 7 30.09 1019 2 3 0.00 0.00
7:20 am 07:20 Cloudy with Mist and Fog 40 4.4 39 3.9 97 97 E 3 6 30.09 1019 2 2 0.00 0.00
7:53 am 07:53 Cloudy with Mist and Fog 40 4.4 40 4.4 100 100 Calm 30.06 1018 2 2 0.01 0.25
8:14 am 08:14 Cloudy with Mist and Fog 41 5 40 4.4 96 96 Calm 30.06 1018 2 3 0.00 0.00
8:25 am 08:25 Cloudy with Mist and Fog 41 5 40 4.4 96 96 ESE 3 6 30.06 1018 2 2 0.00 0.00
8:47 am 08:47 Cloudy with Mist and Fog 43 6 43 6 100 100 SE 5 7 30.06 1018 2 3 0.00 0.00
8:53 am 08:53 Cloudy with Mist and Fog 43 6.1 42 5.6 97 97 SE 5 7 30.04 1017 3 4 0.00 0.00
9:06 am 09:06 Cloudy with Rain 44 6.7 43 6.1 96 96 SE 6 9 30.06 1018 1 2 0.05 1.27
9:10 am 09:10 Cloudy with Light Rain 44 6.7 43 6.1 96 96 SE 5 7 30.06 1018 3 4 0.05 1.27
9:17 am 09:17 Cloudy with Mist and Fog 45 7.2 43 6.1 93 93 SSE 6 9 30.06 1018 4 6 0.05 1.27
9:53 am 09:53 Cloudy 47 8.3 46 7.8 97 97 SSE 7 11 30.02 1017 9 14 0.05 1.27
10:15 am 10:15 Cloudy 49 9.4 47 8.3 93 93 SSE 9 15 30.03 1017 10 16 0.00 0.00
10:53 am 10:53 Cloudy with Light Rain 51 10.6 49 9.4 92 92 S 10 17 29.99 1016 5 8 0.04 1.02
11:01 am 11:01 Cloudy with Light Rain 52 11.1 50 10 93 93 S 10 17 30.00 1016 5 8 0.00 0.03
11:53 am 11:53 Cloudy 56 13.3 53 11.7 90 90 S 13 20 29.96 1015 10 16 0.00 0.03
12:53 pm 12:53 Cloudy 59 15 55 12.8 87 87 S 16 26 29.93 1013 10 16 0.00 0.00
1:53 pm 13:53 Cloudy 61 16.1 55 12.8 81 81 S 17 28 29.88 1012 10 16 0.00 0.00
2:53 pm 14:53 Cloudy 61 16.1 56 13.3 84 84 S 16 26 29.85 1011 10 16 0.01 0.25
3:53 pm 15:53 Cloudy with Light Rain 60 15.6 57 13.9 90 90 S 14 22 29.86 1011 6 10 0.01 0.25
4:53 pm 16:53 Cloudy 61 16.1 57 13.9 87 87 S 16 26 29.86 1011 10 16 0.01 0.25
5:41 pm 17:41 Cloudy 61 16.1 57 13.9 87 87 S 20 31 29.83 1010 10 16 0.00 0.03
5:53 pm 17:53 Cloudy 61 16.1 57 13.9 87 87 S 17 28 29.84 1011 10 16 0.00 0.03
6:53 pm 18:53 Cloudy with Light Rain 61 16.1 57 13.9 87 87 SSW 15 24 29.88 1012 8 13 0.05 1.27
7:53 pm 19:53 Cloudy with Light Rain 60 15.6 57 13.9 90 90 S 15 24 29.86 1011 9 14 0.06 1.52
8:53 pm 20:53 Cloudy with Rain 60 15.6 57 13.9 90 90 SSW 12 19 29.87 1012 7 11 0.05 1.27
9:04 pm 21:04 Cloudy with Light Rain 60 15.6 57 13.9 90 90 SSW 10 17 29.85 1011 7 11 0.02 0.51
9:53 pm 21:53 Cloudy with Light Rain 59 15 57 13.9 93 93 S 10 17 29.88 1012 10 16 0.02 0.51
10:33 pm 22:33 Cloudy with Light Rain 59 15 57 13.9 93 93 S 9 15 29.83 1010 10 16 0.02 0.51
10:53 pm 22:53 Cloudy 59 15 57 13.9 93 93 S 12 19 29.84 1011 10 16 0.02 0.51
11:06 pm 23:06 Cloudy 59 15 57 13.9 93 93 S 14 22 29.85 1011 10 16 0.01 0.25
11:53 pm 23:53 Cloudy 59 15 56 13.3 90 90 S 12 19 29.79 1009 10 16 0.02 0.51

Powered by AerisWeather